This is the latest recevied weather packets stored in our database for station/object R1ZCU-14. If no packets are shown the sender has not sent any weather packets the latest 10 day(s).
| Time | Temp. | Humidity | Pressure | Rain* | Wind** | Luminosity | Snow |
|---|---|---|---|---|---|---|---|
| 1778080260 | 5° C | 49% | 1001.9 hPa | - | - | - | - |
| 1778079660 | 5.56° C | 48% | 1001.9 hPa | - | - | - | - |
| 1778079059 | 5.56° C | 48% | 1001.8 hPa | - | - | - | - |
| 1778078459 | 5.56° C | 47% | 1001.7 hPa | - | - | - | - |
| 1778077858 | 6.11° C | 46% | 1001.7 hPa | - | - | - | - |
| 1778077258 | 6.67° C | 46% | 1001.5 hPa | - | - | - | - |
| 1778076657 | 6.11° C | 47% | 1001.5 hPa | - | - | - | - |
| 1778076057 | 6.11° C | 48% | 1001.5 hPa | - | - | - | - |
| 1778075456 | 6.11° C | 50% | 1001.2 hPa | - | - | - | - |
| 1778074856 | 6.67° C | 49% | 1001.3 hPa | - | - | - | - |
| 1778074255 | 6.11° C | 48% | 1001.3 hPa | - | - | - | - |
| 1778073655 | 6.67° C | 48% | 1001.2 hPa | - | - | - | - |
| 1778073054 | 6.11° C | 48% | 1001.1 hPa | - | - | - | - |
| 1778072454 | 6.11° C | 49% | 1001.1 hPa | - | - | - | - |
| 1778071853 | 6.11° C | 48% | 1001 hPa | - | - | - | - |
| 1778071253 | 5.56° C | 50% | 1001 hPa | - | - | - | - |
| 1778070652 | 5.56° C | 51% | 1001 hPa | - | - | - | - |
| 1778070052 | 6.11° C | 51% | 1000.8 hPa | - | - | - | - |
| 1778069451 | 5.56° C | 53% | 1000.7 hPa | - | - | - | - |
| 1778068851 | 5° C | 60% | 1000.7 hPa | - | - | - | - |
| 1778068250 | 5° C | 60% | 1000.7 hPa | - | - | - | - |
| 1778067650 | 6.67° C | 49% | 1000.3 hPa | - | - | - | - |
| 1778067049 | 7.78° C | 48% | 100 hPa | - | - | - | - |
| 1778066449 | 6.67° C | 50% | 100 hPa | - | - | - | - |
| 1778065848 | 6.11° C | 53% | 100 hPa | - | - | - | - |
* Rain since midnight (hover to see other rain measurements)
** Current wind speed in m/s (hover to see current wind gust speed)